Regional Weather Roundup
Issued by NWS

Home | Current Version | Previous Version | Text Only | Print | Product List | Glossary Off
Versions: 1 2 3 4 5 6 7 8 9 10 11 12 13 14 15 16 17 18 19 20 21 22 23 24 25 26 27

000
ASUS45 KBOU 251207
RWRCO

WEATHER ROUNDUP FOR COLORADO
NATIONAL WEATHER SERVICE DENVER/BOULDER CO
500 AM MST SAT FEB 25 2017

NOTE: "FAIR" INDICATES FEW OR NO CLOUDS BELOW 12000 FEET WITH NO
SIGNIFICANT WEATHER AND/OR OBSTRUCTIONS TO VISIBILITY.

COZ001>005-013-030-031-251300-
...NORTHWEST COLORADO...

CITY           SKY/WX    TMP DP  RH WIND       PRES   REMARKS
CRAIG          FLURRIES  12   8  84 CALM      30.03F
HAYDEN         FAIR      10   5  79 E3        30.01S
MEEKER         FAIR       7   2  80 CALM      30.03S
MOUNT WERNER   NOT AVBL
STEAMBOAT SPGS CLOUDY     6   3  86 CALM      30.00S
WALDEN         NOT AVBL
$$

COZ006>008-011-251300-
...WEST CENTRAL VALLEYS...

CITY           SKY/WX    TMP DP  RH WIND       PRES   REMARKS
GRAND JUNCTION FAIR      18  15  88 CALM      30.09R
MONTROSE       FAIR      14   8  77 SE9       30.10S WCI   2
EAGLE          FLURRIES   7   3  84 E9        30.04S WCI  -7
RIFLE          FAIR       8   6  92 SE3       30.08S
DELTA          FAIR      18  12  75 CALM      30.10R
NUCLA          FAIR      16   7  67 E8        30.11R WCI   5
$$

COZ017>023-064>068-251300-
...SOUTHWEST COLORADO...

CITY           SKY/WX    TMP DP  RH WIND       PRES   REMARKS
DURANGO        FAIR      12   5  73 CALM      30.04R
CORTEZ         FAIR      12   8  84 NE6       30.08S WCI   3
PAGOSA SPRINGS FAIR       5   2  89 CALM      30.02R
TELLURIDE      FAIR       7   1  78 SE5       29.98R WCI  -2
WOLF CREEK PAS FAIR      -4  -8  84 SW16G24   29.87S WCI -25
$$

COZ009-010-012-014-032>034-037-058>063-251300-
...CENTRAL COLORADO...

CITY           SKY/WX    TMP DP  RH WIND       PRES   REMARKS
ASPEN          FAIR       3  -2  79 S7        29.95S WCI  -9
BUENA VISTA    FAIR       9  -2  60 N5        29.93S WCI   1
COPPER MTN     FAIR       0  -8  71 MISG      29.75R
BERTHOUD PASS  CLOUDY    -9 -20  59 NW28G33   29.68F WCI -38
COTTONWOOD PAS FAIR      10  -8  44 SW13G32   29.84S WCI  -5
GUNNISON       FAIR       0  -3  87 CALM      30.01R
KREMMLING      FAIR      12   5  73 E3        29.98S
LEADVILLE      CLOUDY     2  -6  69 VRB5      29.84S WCI  -8
MONARCH PASS   CLOUDY    -4  -8  84 W31       29.86S WCI -32
SALIDA         FAIR      17  -1  43 W13       30.02S WCI   4
SUNLIGHT       NOT AVBL
WILKERSON PASS FAIR      -2  -8  78 W14G26    29.76F WCI -21
$$

COZ069>075-251300-
...SAN LUIS VALLEY/SANGRE DE CRISTO MOUNTAINS...

CITY           SKY/WX    TMP DP  RH WIND       PRES   REMARKS
ALAMOSA        FAIR       9   5  84 W6        29.98S WCI  -1
LA VETA PASS   FAIR       5  -4  66 SW14G29   29.83F WCI -12
SAGUACHE       FAIR       9   0  66 NW9       29.98S WCI  -5
$$

COZ035-036-038>040-251300-
...NORTHERN COLORADO FRONT RANGE...

CITY           SKY/WX    TMP DP  RH WIND       PRES   REMARKS
DENVER INTL AP FAIR      17   8  67 SW10      29.93F WCI   5
DMNS CITY PARK   N/A     19   6  57 S3        29.94F
AURORA         PTCLDY    15   7  73 SW9       29.94S WCI   3
FRONT RANGE AP FAIR      19  12  73 SW7       29.94S WCI  10
ERIE MUNI ARPT FAIR      11   8  89 CALM      29.95S
BOULDER MUN AP FAIR      18  10  73 E6        29.93S WCI   9
CENTENNIAL     FAIR      13   3  64 SW7       29.93S WCI   3
BROOMFIELD     FAIR      25   3  39 NW17G28   29.92F WCI  11
FORT COLLINS   FAIR      12   6  77 NE6       29.96F WCI   3
LONGMONT       FAIR      11   7  85 CALM      29.98R
$$

COZ041-046-047-076>085-087-088-251300-
...PIKES PEAK/PALMER DIVIDE AND SOUTHERN FOOTHILLS...

CITY           SKY/WX    TMP DP  RH WIND       PRES   REMARKS
COLO. SPRINGS  FAIR      11   7  84 W5        29.95F WCI   3
A. F. ACADEMY  FAIR      16   5  61 VRB7G22   29.91F WCI   6
SCHRIEVER AFB  MOCLDY    10   7  85 CALM      29.95
ELLICOTT       CLOUDY   N/A N/A N/A N3          N/A
FALCON         LGT SNOW  11  10  94 CALM      29.92F
FORT CARSON    FAIR      11   7  83 SW5       29.95F WCI   3
LIMON          FAIR      14  10  84 CALM      29.97S
MONUMENT HILL  FAIR       9   1  72 SW10      29.91S WCI  -6
TRINIDAD       FAIR      19   8  62 W14       29.98F WCI   6
$$

COZ042>045-048>051-090-091-251300-
...NORTHEAST COLORADO...

CITY           SKY/WX    TMP DP  RH WIND       PRES   REMARKS
GREELEY ARPT   FAIR       9   6  88 NW3       29.98F
AKRON          FAIR      17  11  77 SW10      29.96S WCI   5
BURLINGTON     MOCLDY    21  17  84 SW13      30.02F WCI   9
WRAY           NOT AVBL
STERLING       FAIR       9   5  85 CALM      29.99S
HOLYOKE        FAIR      12   9  85 W6        30.01S WCI   3
FORT MORGAN    MOCLDY    14  11  87 W5        29.98S WCI   6
$$

COZ086-089-092>099-251300-
...SOUTHEAST COLORADO...

CITY           SKY/WX    TMP DP  RH WIND       PRES   REMARKS
PUEBLO         FAIR      10   5  80 NW3       30.02F
LA JUNTA       FAIR      19  14  81 CALM      30.05S
LAMAR          FAIR      14  10  84 S8        30.07F WCI   3
SPRINGFIELD      N/A     10   7  87 SW9       30.06F WCI  -3
$$




USA.gov is the U.S. government's official web portal to all federal, state and local government web resources and services.